K5PCJ Weather Reports


time (UTC)temp
C
wind
direction
speed
KPH
gust
KPH
rain 1hr
cm
rain 24hr
cm
rain mn
cm
humidity
%
barometer
mb
20260505212044 28 336 1.6 6.4 0.00 0.00 0.00 78 1008.0
20260505211559 28 37 0.0 6.4 0.00 0.00 0.00 78 1007.9
20260505211044 28 85 0.0 3.2 0.00 0.00 0.00 79 1007.9
20260505210545 28 37 0.0 3.2 0.00 0.00 0.00 80 1008.0
20260505210051 28 13 0.0 4.8 0.00 0.00 0.00 80 1008.1
20260505205546 28 41 1.6 4.8 0.00 0.00 0.00 79 1008.1
20260505205040 28 36 1.6 6.4 0.00 0.00 0.00 78 1008.2
20260505204552 28 350 1.6 6.4 0.00 0.00 0.00 78 1008.3
20260505204044 28 332 1.6 4.8 0.00 0.00 0.00 78 1008.2
20260505203544 28 349 1.6 8.0 0.00 0.00 0.00 78 1008.3
20260505203053 28 49 1.6 8.0 0.00 0.00 0.00 78 1008.3
20260505202545 28 44 1.6 4.8 0.00 0.00 0.00 78 1008.4
20260505202044 28 58 0.0 3.2 0.00 0.00 0.00 80 1008.6
20260505201602 28 39 0.0 6.4 0.00 0.00 0.00 80 1008.7
20260505201047 28 46 1.6 9.7 0.00 0.00 0.00 79 1008.9
20260505200544 28 27 1.6 9.7 0.00 0.00 0.00 77 1008.9
20260505195546 28 47 0.0 4.8 0.00 0.00 0.00 79 1009.0
20260505195045 28 75 1.6 4.8 0.00 0.00 0.00 79 1009.0
20260505194555 28 56 0.0 4.8 0.00 0.00 0.00 81 1009.0
20260505194043 27 39 1.6 4.8 0.00 0.00 0.00 82 1009.1
20260505193543 27 342 1.6 8.0 0.00 0.00 0.00 82 1009.1
20260505193052 27 36 1.6 8.0 0.00 0.00 0.00 82 1009.3
20260505192548 27 348 3.2 8.0 0.00 0.00 0.00 82 1009.3
20260505192047 27 3 0.0 4.8 0.00 0.00 0.00 82 1009.4
20260505191556 27 0 0.0 4.8 0.00 0.00 0.00 81 1009.4
20260505191159 27 360 1.6 6.4 0.00 0.00 0.00 81 1009.5
20260505190544 27 20 1.6 6.4 0.00 0.00 0.00 81 1009.5
20260505185544 27 303 0.0 3.2 0.00 0.00 0.00 81 1009.6
20260505185044 27 25 1.6 6.4 0.00 0.00 0.00 81 1009.6
20260505184553 27 80 1.6 6.4 0.00 0.00 0.00 81 1009.6
20260505184044 27 0 1.6 9.7 0.00 0.00 0.00 81 1009.6
20260505183543 27 309 1.6 14.5 0.00 0.00 0.00 81 1009.7
20260505183053 27 37 3.2 14.5 0.00 0.00 0.00 81 1009.7
20260505182543 27 23 0.0 4.8 0.00 0.00 0.00 81 1009.7
20260505182045 27 18 0.0 6.4 0.00 0.00 0.00 81 1009.7
20260505181549 27 32 1.6 6.4 0.00 0.00 0.00 82 1009.7
20260505181046 26 8 1.6 3.2 0.00 0.00 0.00 82 1009.7
20260505180542 26 25 1.6 6.4 0.00 0.00 0.00 82 1009.7
20260505180050 26 0 0.0 6.4 0.00 0.00 0.00 82 1009.7
20260505175540 26 54 0.0 6.4 0.00 0.00 0.00 82 1009.8
20260505175044 26 81 1.6 9.7 0.00 0.00 0.00 82 1009.8
20260505174552 26 34 1.6 9.7 0.00 0.00 0.00 82 1009.8
20260505174044 26 53 1.6 9.7 0.00 0.00 0.00 83 1009.9
20260505173547 26 355 1.6 4.8 0.00 0.00 0.00 83 1010.0
20260505173050 26 354 1.6 4.8 0.00 0.00 0.00 83 1010.2
20260505172543 26 0 0.0 0.0 0.00 0.00 0.00 85 1010.2
20260505172041 26 0 0.0 0.0 0.00 0.00 0.00 85 1010.2
20260505171546 26 0 0.0 0.0 0.00 0.00 0.00 85 1010.3
20260505171048 25 0 0.0 0.0 0.00 0.00 0.00 85 1010.2
20260505170541 25 0 0.0 1.6 0.00 0.00 0.00 86 1010.2
20260505170046 25 0 0.0 3.2 0.00 0.00 0.00 86 1010.2
20260505165540 25 25 0.0 3.2 0.00 0.00 0.00 86 1010.2
20260505165048 25 28 0.0 1.6 0.00 0.00 0.00 85 1010.4
20260505164549 25 53 0.0 3.2 0.00 0.00 0.00 85 1010.3
20260505164040 25 0 0.0 3.2 0.00 0.00 0.00 85 1010.3
20260505163540 25 30 1.6 3.2 0.00 0.00 0.00 85 1010.3
20260505163051 25 38 0.0 3.2 0.00 0.00 0.00 85 1010.2
20260505162543 25 56 0.0 6.4 0.00 0.00 0.00 86 1010.1
20260505162041 25 9 0.0 6.4 0.00 0.00 0.00 86 1010.1
20260505161544 25 8 1.6 6.4 0.00 0.00 0.00 85 1010.2
20260505161041 25 0 1.6 3.2 0.00 0.00 0.00 85 1010.2
20260505160542 25 39 0.0 3.2 0.00 0.00 0.00 85 1010.3
20260505160105 25 332 1.6 3.2 0.00 0.00 0.00 85 1010.3
20260505153052 25 67 0.0 3.2 0.00 0.00 0.00 85 1010.1
20260505152540 25 330 0.0 3.2 0.00 0.00 0.00 85 1010.0
20260505152045 25 30 0.0 3.2 0.00 0.00 0.00 85 1010.1
20260505151549 25 32 0.0 3.2 0.00 0.00 0.00 85 1010.1
20260505151046 25 0 0.0 6.4 0.00 0.00 0.00 85 1010.1
20260505150541 25 44 0.0 6.4 0.00 0.00 0.00 85 1010.2
20260505140544 23 35 1.6 4.8 0.00 0.00 0.00 86 1009.9
20260505124553 22 359 1.6 3.2 0.00 0.00 0.00 87 1009.6
20260505124040 22 351 0.0 3.2 0.00 0.00 0.00 87 1009.6
20260505123543 22 16 1.6 6.4 0.00 0.00 0.00 87 1009.5
20260505123049 22 341 1.6 6.4 0.00 0.00 0.00 87 1009.7
20260505122543 22 0 0.0 3.2 0.00 0.00 0.00 87 1009.6
20260505122043 22 0 0.0 4.8 0.00 0.00 0.00 87 1009.5
20260505121555 22 9 1.6 4.8 0.00 0.00 0.00 87 1009.3
20260505121045 22 349 1.6 3.2 0.00 0.00 0.00 87 1009.3
20260505120544 22 309 0.0 3.2 0.00 0.00 0.00 87 1009.1
20260505120052 22 68 0.0 3.2 0.00 0.00 0.00 87 1009.2
20260505115540 22 349 1.6 6.4 0.00 0.00 0.00 87 1009.1
20260505115040 22 45 1.6 6.4 0.00 0.00 0.00 87 1009.4
20260505114549 22 4 1.6 6.4 0.00 0.00 0.00 87 1009.3
20260505114044 22 8 0.0 6.4 0.00 0.00 0.00 87 1009.4
20260505113547 22 32 0.0 6.4 0.00 0.00 0.00 87 1009.3
20260505113048 22 19 1.6 6.4 0.00 0.00 0.00 87 1009.2
20260505112548 22 52 0.0 6.4 0.00 0.00 0.00 87 1009.1
20260505112044 22 13 1.6 6.4 0.00 0.00 0.00 87 1009.0
20260505111549 22 29 0.0 4.8 0.00 0.00 0.00 87 1009.1
20260505111044 22 0 1.6 4.8 0.00 0.00 0.00 87 1009.1
20260505110544 22 33 1.6 4.8 0.00 0.00 0.00 87 1009.0
20260505102044 22 0 0.0 3.2 0.00 0.00 0.00 88 1009.2
20260505101548 22 0 1.6 3.2 0.00 0.00 0.00 88 1009.1
20260505101041 22 0 0.0 4.8 0.00 0.00 0.00 88 1009.2
20260505100544 22 0 0.0 4.8 0.00 0.00 0.00 88 1009.2
20260505100044 22 14 1.6 4.8 0.00 0.00 0.00 88 1009.1
20260505095540 22 15 1.6 3.2 0.00 0.00 0.00 88 1009.1
20260505095043 21 359 1.6 3.2 0.00 0.00 0.00 88 1009.2
20260505094545 21 349 0.0 3.2 0.00 0.00 0.00 88 1009.1
20260505094041 21 47 0.0 3.2 0.00 0.00 0.00 88 1009.3
20260505093543 21 0 0.0 1.6 0.00 0.00 0.00 89 1009.4
20260505093044 21 0 0.0 1.6 0.00 0.00 0.00 89 1009.4
20260505092544 21 36 0.0 1.6 0.00 0.00 0.00 89 1009.4
20260505092040 21 36 0.0 3.2 0.00 0.00 0.00 89 1009.3
20260505091552 21 0 0.0 3.2 0.00 0.00 0.00 88 1009.4
20260505091040 21 0 0.0 3.2 0.00 0.00 0.00 88 1009.4
20260505090540 21 0 0.0 3.2 0.00 0.00 0.00 88 1009.4
20260505090050 21 352 0.0 3.2 0.00 0.00 0.00 88 1009.5
20260505085541 21 0 0.0 3.2 0.00 0.00 0.00 88 1009.5
20260505085044 21 0 0.0 3.2 0.00 0.00 0.00 88 1009.5
20260505084551 21 70 0.0 1.6 0.00 0.00 0.00 88 1009.6
20260505084044 21 28 0.0 3.2 0.00 0.00 0.00 88 1009.6
20260505083543 21 0 0.0 3.2 0.00 0.00 0.00 88 1009.5
20260505083048 21 0 0.0 3.2 0.00 0.00 0.00 88 1009.6
20260505082541 21 20 0.0 3.2 0.00 0.00 0.00 88 1009.5
20260505082041 21 56 0.0 3.2 0.00 0.00 0.00 87 1009.7
20260505081554 21 49 1.6 3.2 0.00 0.00 0.00 87 1009.7
20260505081040 21 0 0.0 3.2 0.00 0.00 0.00 87 1009.7
20260505080543 21 43 0.0 3.2 0.00 0.00 0.00 87 1009.7
20260505080103 21 35 0.0 3.2 0.00 0.00 0.00 87 1009.7
20260505075542 21 40 1.6 3.2 0.00 0.00 0.00 87 1009.7
20260505075044 21 27 0.0 3.2 0.00 0.00 0.00 87 1009.8
20260505074553 21 50 0.0 3.2 0.00 0.00 0.00 87 1009.8
20260505074040 21 48 0.0 3.2 0.00 0.00 0.00 87 1009.8
20260505073540 21 0 0.0 4.8 0.00 0.00 0.00 87 1009.9
20260505073058 21 56 0.0 4.8 0.00 0.00 0.00 87 1010.0
20260505072545 21 111 0.0 8.0 0.00 0.00 0.00 87 1010.0
20260505072046 21 32 0.0 8.0 0.00 0.00 0.00 87 1010.0
20260505071552 21 36 1.6 8.0 0.00 0.00 0.00 87 1010.1
20260505071046 21 11 0.0 3.2 0.00 0.00 0.00 87 1010.1
20260505070546 21 32 0.0 3.2 0.00 0.00 0.00 87 1010.1
20260505070055 21 42 0.0 4.8 0.00 0.00 0.00 87 1010.2
20260505065546 21 61 1.6 4.8 0.00 0.00 0.00 87 1010.2
20260505065045 21 20 1.6 4.8 0.00 0.00 0.00 87 1010.2
20260505064547 21 0 0.0 3.2 0.00 0.00 0.00 87 1010.3
20260505064045 21 29 0.0 4.8 0.00 0.00 0.00 87 1010.6
20260505063545 21 30 0.0 4.8 0.00 0.00 0.00 87 1010.5
20260505063111 21 30 0.0 3.2 0.00 0.00 0.00 87 1010.6
20260505062546 21 35 0.0 3.2 0.00 0.00 0.00 87 1010.7
20260505062044 21 65 0.0 3.2 0.00 0.00 0.00 87 1010.7
20260505061548 21 84 0.0 3.2 0.00 0.00 0.00 86 1010.8
20260505061049 21 37 0.0 6.4 0.00 0.00 0.00 86 1010.7
20260505060545 21 6 1.6 6.4 0.00 0.00 0.00 86 1010.7
20260505060056 21 29 0.0 6.4 0.00 0.00 0.00 86 1010.7
20260505055546 21 0 0.0 6.4 0.00 0.00 0.00 86 1010.8
20260505055045 21 28 1.6 6.4 0.00 0.00 0.00 86 1010.9
20260505054604 21 59 0.0 3.2 0.00 0.00 0.00 86 1010.9
20260505054046 21 0 0.0 3.2 0.00 0.00 0.00 86 1010.9
20260505053544 21 13 0.0 3.2 0.00 0.00 0.00 86 1011.1
20260505053100 21 38 0.0 3.2 0.00 0.00 0.00 86 1011.0
20260505052545 21 49 0.0 3.2 0.00 0.00 0.00 86 1011.2
20260505052047 21 0 0.0 1.6 0.00 0.00 0.00 86 1011.3
20260505051553 21 56 0.0 1.6 0.00 0.00 0.00 86 1011.2
20260505051047 21 0 0.0 1.6 0.00 0.00 0.00 85 1011.2
20260505050545 21 0 0.0 1.6 0.00 0.00 0.00 85 1011.2
20260505041556 22 338 1.6 6.4 0.00 0.00 0.00 81 1011.3
20260505041044 22 330 3.2 6.4 0.00 0.00 0.00 81 1011.5
20260505040544 22 50 1.6 6.4 0.00 0.00 0.00 81 1011.4
20260505040055 22 8 1.6 6.4 0.00 0.00 0.00 81 1011.3
20260505035545 22 341 3.2 8.0 0.00 0.00 0.00 81 1011.3
20260505035048 22 297 3.2 8.0 0.00 0.00 0.00 81 1011.3
20260505034558 22 356 1.6 4.8 0.00 0.00 0.00 82 1011.4
20260505034049 22 22 1.6 4.8 0.00 0.00 0.00 82 1011.6
20260505033546 22 31 0.0 4.8 0.00 0.00 0.00 82 1011.7
20260505033056 22 6 0.0 1.6 0.00 0.00 0.00 83 1011.7
20260505032544 22 0 0.0 3.2 0.00 0.00 0.00 82 1011.6
20260505032046 22 352 0.0 3.2 0.00 0.00 0.00 82 1011.7
20260505031603 22 34 0.0 1.6 0.00 0.00 0.00 82 1011.6
20260505031045 22 0 0.0 3.2 0.00 0.00 0.00 82 1011.6
20260505030545 22 0 0.0 3.2 0.00 0.00 0.00 81 1011.5
20260505030103 22 94 0.0 3.2 0.00 0.00 0.00 81 1011.4
20260505025546 22 15 0.0 3.2 0.00 0.00 0.00 81 1011.5
20260505025045 22 18 0.0 3.2 0.00 0.00 0.00 81 1011.5
20260505024603 22 0 0.0 1.6 0.00 0.00 0.00 81 1011.6
20260505024045 22 0 0.0 1.6 0.00 0.00 0.00 81 1011.5
20260505023545 22 45 0.0 3.2 0.00 0.00 0.00 81 1011.5
20260505023059 22 51 0.0 3.2 0.00 0.00 0.00 81 1011.6
20260505022545 22 53 0.0 3.2 0.00 0.00 0.00 81 1011.5
20260505022045 22 135 0.0 4.8 0.00 0.00 0.00 81 1011.5
20260505021559 22 0 0.0 4.8 0.00 0.00 0.00 81 1011.5
20260505021044 22 7 0.0 3.2 0.00 0.00 0.00 81 1011.5
20260505020542 22 0 0.0 3.2 0.00 0.00 0.00 81 1011.5
20260505020053 22 360 0.0 1.6 0.00 0.00 0.00 80 1011.4
20260505015550 22 356 0.0 4.8 0.00 0.00 0.00 80 1011.2
20260505015046 22 27 0.0 4.8 0.00 0.00 0.00 80 1011.1
20260505014608 22 40 0.0 3.2 0.00 0.00 0.00 80 1011.0
20260505014047 22 23 0.0 3.2 0.00 0.00 0.00 80 1010.9
20260505013543 22 18 0.0 3.2 0.00 0.00 0.00 79 1011.0
20260505013049 22 38 0.0 4.8 0.00 0.00 0.00 79 1011.0
20260505012543 22 14 0.0 4.8 0.00 0.00 0.00 78 1011.0
20260505012045 22 339 1.6 3.2 0.00 0.00 0.00 78 1011.1
20260505011556 22 0 1.6 3.2 0.00 0.00 0.00 78 1011.1
20260505011044 22 0 0.0 3.2 0.00 0.00 0.00 78 1011.0
20260505010540 22 25 0.0 3.2 0.00 0.00 0.00 77 1011.0
20260505010048 22 8 1.6 3.2 0.00 0.00 0.00 77 1011.1
20260505005544 23 28 0.0 3.2 0.00 0.00 0.00 76 1011.1
20260505005047 23 30 0.0 6.4 0.00 0.00 0.00 76 1010.9
20260505004547 23 44 0.0 6.4 0.00 0.00 0.00 75 1010.8
20260505004043 23 9 1.6 6.4 0.00 0.00 0.00 75 1010.8
20260505003543 23 338 1.6 6.4 0.00 0.00 0.00 75 1010.8
20260505003049 23 39 0.0 4.8 0.00 0.00 0.00 75 1010.9
20260505002540 23 349 1.6 6.4 0.00 0.00 0.00 75 1010.9
20260505002046 23 316 1.6 6.4 0.00 0.00 0.00 74 1011.0
20260505001545 23 357 1.6 4.8 0.00 0.00 0.00 75 1011.0
20260505001045 23 304 0.0 4.8 0.00 0.00 0.00 75 1011.1
20260505000540 23 356 1.6 6.4 0.00 0.00 0.00 74 1011.1
20260504235540 23 25 1.6 6.4 0.00 0.00 0.00 74 1011.1
20260504235040 23 355 1.6 6.4 0.00 0.00 0.00 74 1011.1
20260504234550 24 289 0.0 4.8 0.00 0.00 0.00 74 1011.1
20260504234043 24 18 1.6 4.8 0.00 0.00 0.00 73 1011.1
20260504233543 24 0 0.0 6.4 0.00 0.00 0.00 74 1011.1
20260504233105 24 46 0.0 6.4 0.00 0.00 0.00 73 1011.2
20260504232544 24 337 1.6 6.4 0.00 0.00 0.00 72 1011.2
20260504232044 24 345 0.0 6.4 0.00 0.00 0.00 72 1011.3
20260504231548 25 0 1.6 4.8 0.00 0.00 0.00 72 1011.5
20260504231041 25 359 0.0 4.8 0.00 0.00 0.00 71 1011.4
20260504230540 25 36 1.6 6.4 0.00 0.00 0.00 70 1011.5
20260504230050 25 34 1.6 6.4 0.00 0.00 0.00 70 1011.4
20260504225541 25 30 1.6 6.4 0.00 0.00 0.00 69 1011.4
20260504225042 25 356 1.6 4.8 0.00 0.00 0.00 69 1011.4
20260504224553 25 325 0.0 6.4 0.00 0.00 0.00 70 1011.6
20260504224044 25 326 1.6 6.4 0.00 0.00 0.00 70 1011.7
20260504223544 25 335 1.6 6.4 0.00 0.00 0.00 69 1011.7
20260504223110 25 45 1.6 6.4 0.00 0.00 0.00 68 1011.8
20260504222544 25 353 1.6 6.4 0.00 0.00 0.00 68 1011.9
20260504222043 26 0 1.6 4.8 0.00 0.00 0.00 68 1012.0
20260504221556 26 0 1.6 4.8 0.00 0.00 0.00 67 1011.9
20260504221046 26 6 1.6 4.8 0.00 0.00 0.00 66 1011.8
20260504220544 26 338 1.6 6.4 0.00 0.00 0.00 66 1011.9
20260504220057 26 335 3.2 6.4 0.00 0.00 0.00 65 1011.8
20260504215544 26 323 1.6 6.4 0.00 0.00 0.00 64 1012.0
20260504215045 27 359 1.6 12.9 0.00 0.00 0.00 64 1012.0
20260504214552 27 26 1.6 12.9 0.00 0.00 0.00 62 1012.0
20260504214048 27 331 3.2 6.4 0.00 0.00 0.00 63 1012.1
20260504213540 27 348 1.6 6.4 0.00 0.00 0.00 63 1012.0
20260504213105 27 51 3.2 6.4 0.00 0.00 0.00 62 1012.0
20260504212544 27 18 1.6 6.4 0.00 0.00 0.00 62 1012.2